Flag for Japan Weather past 2 weeks in Hamamatsu, Japan

Now
82 °F

Warm.


Feels Like: 90 °F
Forecast: 74 / 90 °F
Wind: 5 mph from South

Location: Omaezaki

Current Time: Jul 29, 2015 at 7:42:00 PM

Latest Report: Jul 29, 2015 at 7:00 PM


Visibility: 7 mi

Pressure: 29.76 "Hg

Humidity: 84%

Dew point: 77 °F

Location of HamamatsuLocation

Historic Weather in Hamamatsu — Graph

°F

Hamamatsu temperature yesterday

Maximum temperature yesterday: 89 °F (at 1:00 PM)
Minimum temperature yesterday: 76 °F (at 5:00 AM)
Average temperature yesterday: 82 °F

Past Weeks' High & Low Weather Summary

 TemperatureHumidityPressure
High89 °F (Jul 28, 1:00 PM)99% (Jul 25, 3:00 AM)30.02 "Hg (Jul 25, 3:00 AM)
Low74 °F (Jul 22, 4:00 AM)61% (Jul 15, 1:00 PM)29.63 "Hg (Jul 16, 4:00 AM)
Average80 °F88%29.84 "Hg
* Reported Jul 14 6:00 PM — Jul 29 6:00 PM, Hamamatsu, Weather by CustomWeather, © 2015

Note: Actual official high and low records may vary slightly from our data, if they occured in-between our weather recording intervals... More about our weather records

Advertising

Hamamatsu weather history for previous 24 hours

 ConditionsComfort  
Time TempWeatherWind HumidityBarometerVisibility
6:00 PM
Wed, Jul 29
83 °FWarm.5 mph80%29.75 "Hg8 mi
5:00 PM85 °FWarm.6 mph75%29.74 "Hg10 mi
4:00 PM85 °FWarm.6 mph76%29.75 "Hg9 mi
3:00 PM86 °FFog.7 mph80%29.75 "Hg6 mi
2:00 PM86 °FFog.9 mph78%29.75 "Hg6 mi
1:00 PM86 °FWarm.8 mph76%29.75 "Hg8 mi
12:00 PM86 °FSmoke.8 mph73%29.76 "Hg3 mi
11:00 AM85 °FFog.8 mph76%29.76 "Hg6 mi
10:00 AM86 °FWarm.7 mph73%29.76 "Hg9 mi
9:00 AM86 °FWarm.3 mph72%29.75 "Hg9 mi
8:00 AM84 °FFog.3 mph76%29.75 "Hg6 mi
7:00 AM83 °FFog.3 mph81%29.75 "Hg6 mi
5:00 AM78 °FWarm.2 mph90%29.73 "Hg9 mi
4:00 AM78 °FFog.3 mph93%29.72 "Hg4 mi
3:00 AM78 °FFog.3 mph92%29.72 "Hg3 mi
2:00 AM79 °FWarm.2 mph90%29.71 "Hg9 mi
1:00 AM80 °FWarm.2 mph89%29.72 "Hg9 mi
12:00 AM80 °FWarm.6 mph88%29.72 "Hg11 mi
11:00 PM
Tue, Jul 28
80 °FWarm.7 mph87%29.72 "Hg11 mi
10:00 PM80 °FWarm.7 mph87%29.73 "Hg10 mi
9:00 PM81 °FWarm.6 mph85%29.73 "Hg9 mi
8:00 PM82 °FWarm.5 mph80%29.71 "Hg11 mi
7:00 PM81 °FWarm.8 mph83%29.70 "Hg11 mi
Weather by CustomWeather, © 2015

See weather overviewHow to use our weather pages